Back to catalog

COSMOS 1234

AliveMilitaryLEO
NORAD 12113·PAYLOAD·🇷🇺 Russia

Launched Dec 23, 1980 from Plesetsk Cosmodrome

Loading…

Next Passes (next 24 hours)

TLE

FreshSource: Space-Track

Epoch: Sep 14, 2026, 10:27 UTC

1 12113U 80102G   26257.43556986 -.00000024  00000-0 -42191-4 0  9996
2 12113  73.9907 247.1361 0035863 297.7154 135.3235 12.56714454 97534

Track COSMOS 1234 in real time with AllMySat

Download on the App Store